Location: Newark
(43.0000°N, 1.6781°W)
Time: 23:58:56
(UTC+00:00)

Vanguard 1 Rocket - Pass Details

Date: 28 April 2021
Orbit: 652 x 4224 km, 34.3° (Epoch: 10 May)

Event Time Altitude Azimuth Distance (km) Brightness Sun altitude
Rises 07:45:33 0° 198° (SSW) 7,502 12.0 28.1°
Reaches altitude 10° 07:54:31 10° 179° (S) 5,664 11.6 29.7°
Maximum altitude 08:01:41 15° 152° (SSE) 4,485 11.6 31.0°
Drops below altitude 10° 08:07:12 10° 123° (ESE) 4,180 12.0 32.0°
Sets 08:11:51 0° 100° (E) 4,562 12.1 32.9°
